KHB102 URWW-UWUU

Flight info

Callsign KHB102
Flight time 1h 34m
Altitude 35000
Route RODUN1F RODUN R807 UROBO T692 KORIR M158 DILUP DILUP3L
Aircraft B38M/M-SDE1FGHILORVWXY/HB1

Departure

Time 2026-05-05 02:11
Airport Volgograd International Airport (URWW)

Arrival

Time 2026-05-05 03:45
Airport Ufa International Airport (UWUU)
Time Latitude Longitude Altitude Speed Heading
2026-05-05 01:22 48.79093 44.35557 484 ft 0 kts 340°
2026-05-05 01:55 48.79093 44.35558 484 ft 1 kts 340°
2026-05-05 01:55 48.79069 44.35571 480 ft 4 kts 338°
2026-05-05 01:55 48.79050 44.35585 479 ft 2 kts 321°
2026-05-05 01:55 48.79043 44.35598 478 ft 2 kts 274°
2026-05-05 01:56 48.79045 44.35615 479 ft 2 kts 254°
2026-05-05 01:56 48.79047 44.35627 481 ft 0 kts 252°
2026-05-05 02:02 48.79045 44.35616 484 ft 4 kts 250°
2026-05-05 02:02 48.79022 44.35527 477 ft 14 kts 248°
2026-05-05 02:02 48.78973 44.35350 481 ft 20 kts 252°
2026-05-05 02:02 48.78948 44.35231 482 ft 12 kts 252°
2026-05-05 02:03 48.78910 44.35113 478 ft 13 kts 227°
2026-05-05 02:03 48.78861 44.35013 481 ft 12 kts 248°
2026-05-05 02:03 48.78828 44.34884 480 ft 14 kts 249°
2026-05-05 02:03 48.78793 44.34739 477 ft 15 kts 250°
2026-05-05 02:04 48.78755 44.34581 477 ft 17 kts 248°
2026-05-05 02:04 48.78710 44.34412 482 ft 18 kts 248°
2026-05-05 02:04 48.78673 44.34273 479 ft 14 kts 248°
2026-05-05 02:04 48.78636 44.34165 483 ft 11 kts 222°
2026-05-05 02:05 48.78549 44.34166 473 ft 16 kts 165°
2026-05-05 02:05 48.78432 44.34205 473 ft 12 kts 188°
2026-05-05 02:05 48.78385 44.34119 476 ft 11 kts 244°
2026-05-05 02:05 48.78348 44.34003 471 ft 14 kts 244°
2026-05-05 02:06 48.78299 44.33852 469 ft 18 kts 243°
2026-05-05 02:06 48.78238 44.33660 463 ft 23 kts 244°
2026-05-05 02:06 48.78169 44.33442 453 ft 25 kts 244°
2026-05-05 02:06 48.78098 44.33216 447 ft 20 kts 244°
2026-05-05 02:07 48.78030 44.33004 435 ft 25 kts 244°
2026-05-05 02:07 48.77954 44.32766 433 ft 24 kts 244°
2026-05-05 02:07 48.77878 44.32529 422 ft 26 kts 244°
2026-05-05 02:07 48.77806 44.32302 420 ft 22 kts 244°
2026-05-05 02:08 48.77748 44.32117 411 ft 21 kts 245°
2026-05-05 02:08 48.77694 44.31941 412 ft 15 kts 245°
2026-05-05 02:08 48.77654 44.31820 413 ft 12 kts 236°
2026-05-05 02:08 48.77597 44.31787 416 ft 9 kts 167°
2026-05-05 02:09 48.77536 44.31827 415 ft 11 kts 149°
2026-05-05 02:09 48.77509 44.31915 414 ft 9 kts 80°
2026-05-05 02:09 48.77518 44.31949 408 ft 0 kts 64°
2026-05-05 02:10 48.77529 44.31985 410 ft 24 kts 64°
2026-05-05 02:10 48.77723 44.32587 431 ft 102 kts 64°
2026-05-05 02:10 48.78134 44.33877 476 ft 166 kts 64°
2026-05-05 02:10 48.78672 44.35567 1053 ft 184 kts 63°
2026-05-05 02:11 48.79221 44.37306 2146 ft 181 kts 64°
2026-05-05 02:11 48.79768 44.39066 2916 ft 193 kts 64°
2026-05-05 02:11 48.80376 44.40987 3500 ft 212 kts 64°
2026-05-05 02:11 48.81032 44.43052 4301 ft 222 kts 62°
2026-05-05 02:12 48.81978 44.44936 5208 ft 230 kts 43°
2026-05-05 02:12 48.84900 44.47379 6929 ft 248 kts 28°
2026-05-05 02:12 48.86486 44.48520 7732 ft 256 kts 30°
2026-05-05 02:13 48.88102 44.49746 8579 ft 262 kts 31°
2026-05-05 02:13 48.89731 44.50995 9564 ft 263 kts 31°
2026-05-05 02:13 48.91374 44.52291 10356 ft 270 kts 31°
2026-05-05 02:13 48.93063 44.53654 10982 ft 282 kts 31°
2026-05-05 02:14 48.94863 44.55092 11367 ft 302 kts 31°
2026-05-05 02:14 48.96783 44.56636 11710 ft 322 kts 31°
2026-05-05 02:14 48.98795 44.58260 12049 ft 340 kts 31°
2026-05-05 02:14 49.00931 44.59984 12511 ft 353 kts 30°
2026-05-05 02:15 49.03124 44.61751 13207 ft 358 kts 30°
2026-05-05 02:15 49.05339 44.63536 13901 ft 363 kts 30°
2026-05-05 02:15 49.07586 44.65348 14525 ft 367 kts 30°
2026-05-05 02:15 49.09852 44.67177 15175 ft 370 kts 30°
2026-05-05 02:16 49.12140 44.69025 15798 ft 374 kts 30°
2026-05-05 02:16 49.14449 44.70892 16415 ft 377 kts 30°
2026-05-05 02:16 49.16783 44.72781 17029 ft 381 kts 30°
2026-05-05 02:16 49.19133 44.74685 17616 ft 384 kts 30°
2026-05-05 02:17 49.21506 44.76610 18209 ft 388 kts 30°
2026-05-05 02:17 49.23898 44.78552 18740 ft 391 kts 30°
2026-05-05 02:17 49.26312 44.80514 19236 ft 394 kts 30°
2026-05-05 02:17 49.28746 44.82496 19733 ft 398 kts 30°
2026-05-05 02:18 49.31202 44.84496 20230 ft 401 kts 30°
2026-05-05 02:18 49.33670 44.86509 20719 ft 404 kts 30°
2026-05-05 02:18 49.36161 44.88543 21198 ft 407 kts 30°
2026-05-05 02:18 49.38668 44.90592 21680 ft 410 kts 30°
2026-05-05 02:19 49.41193 44.92658 22148 ft 413 kts 30°
2026-05-05 02:19 49.43737 44.94744 22621 ft 416 kts 30°
2026-05-05 02:19 49.46303 44.96848 23077 ft 419 kts 30°
2026-05-05 02:19 49.48882 44.98967 23528 ft 422 kts 30°
2026-05-05 02:20 49.51480 45.01103 23913 ft 425 kts 30°
2026-05-05 02:20 49.54098 45.03258 24280 ft 428 kts 30°
2026-05-05 02:20 49.56724 45.05423 24662 ft 430 kts 30°
2026-05-05 02:20 49.59378 45.07612 25018 ft 433 kts 30°
2026-05-05 02:21 49.62039 45.09811 25365 ft 436 kts 30°
2026-05-05 02:21 49.64681 45.11997 25705 ft 438 kts 30°
2026-05-05 02:21 49.67431 45.14057 26026 ft 442 kts 20°
2026-05-05 02:21 49.70401 45.15379 26407 ft 444 kts 17°
2026-05-05 02:22 49.73382 45.16698 26705 ft 448 kts 17°
2026-05-05 02:22 49.76390 45.18019 27055 ft 450 kts 17°
2026-05-05 02:22 49.79410 45.19343 27372 ft 452 kts 17°
2026-05-05 02:22 49.82444 45.20674 27693 ft 455 kts 17°
2026-05-05 02:23 49.85497 45.22014 28014 ft 457 kts 16°
2026-05-05 02:23 49.88561 45.23362 28340 ft 459 kts 16°
2026-05-05 02:23 49.91648 45.24721 28640 ft 462 kts 16°
2026-05-05 02:23 49.94745 45.26087 28942 ft 464 kts 16°
2026-05-05 02:24 49.97847 45.27530 29229 ft 467 kts 21°
2026-05-05 02:24 50.00712 45.29892 29531 ft 468 kts 36°
2026-05-05 02:24 50.03089 45.33355 29856 ft 469 kts 51°
2026-05-05 02:24 50.04976 45.37496 30190 ft 470 kts 56°
2026-05-05 02:25 50.06794 45.41728 30473 ft 471 kts 57°
2026-05-05 02:25 50.08579 45.46005 30812 ft 471 kts 57°
2026-05-05 02:25 50.10344 45.50302 31153 ft 470 kts 57°
2026-05-05 02:25 50.12090 45.54599 31483 ft 470 kts 58°
2026-05-05 02:26 50.13832 45.58906 31791 ft 470 kts 58°
2026-05-05 02:26 50.15573 45.63225 32120 ft 470 kts 58°
2026-05-05 02:26 50.17308 45.67536 32434 ft 470 kts 58°
2026-05-05 02:26 50.19020 45.71798 32736 ft 469 kts 58°
2026-05-05 02:27 50.20751 45.76112 33049 ft 469 kts 58°
2026-05-05 02:27 50.22482 45.80434 33344 ft 469 kts 58°
2026-05-05 02:27 50.24212 45.84762 33645 ft 469 kts 58°
2026-05-05 02:27 50.25937 45.89082 33937 ft 469 kts 58°
2026-05-05 02:28 50.27666 45.93422 34191 ft 470 kts 58°
2026-05-05 02:28 50.29388 45.97751 34431 ft 470 kts 58°
2026-05-05 02:28 50.31114 46.02097 34674 ft 470 kts 58°
2026-05-05 02:28 50.32836 46.06440 34908 ft 470 kts 58°
2026-05-05 02:29 50.34559 46.10791 35012 ft 471 kts 58°
2026-05-05 02:29 50.37997 46.19498 35002 ft 469 kts 58°
2026-05-05 02:30 50.41425 46.28209 35000 ft 470 kts 58°
2026-05-05 02:30 50.44848 46.36937 34999 ft 470 kts 58°
2026-05-05 02:31 50.48267 46.45684 35002 ft 470 kts 58°
2026-05-05 02:31 50.51681 46.54440 35001 ft 470 kts 58°
2026-05-05 02:32 50.55028 46.63276 35003 ft 470 kts 61°
2026-05-05 02:32 50.58224 46.72271 35004 ft 471 kts 60°
2026-05-05 02:33 50.61430 46.81261 35000 ft 471 kts 60°
2026-05-05 02:33 50.64635 46.90275 35003 ft 472 kts 60°
2026-05-05 02:34 50.67835 46.99306 35002 ft 472 kts 60°
2026-05-05 02:34 50.71026 47.08346 35004 ft 472 kts 60°
2026-05-05 02:35 50.74218 47.17421 34999 ft 472 kts 60°
2026-05-05 02:35 50.77381 47.26443 35003 ft 473 kts 61°
2026-05-05 02:36 50.80560 47.35544 35002 ft 473 kts 61°
2026-05-05 02:36 50.83732 47.44657 34999 ft 473 kts 61°
2026-05-05 02:37 50.86901 47.53798 35004 ft 474 kts 61°
2026-05-05 02:37 50.90062 47.62946 35006 ft 474 kts 61°
2026-05-05 02:38 50.93217 47.72110 35004 ft 474 kts 61°
2026-05-05 02:38 50.96369 47.81297 35005 ft 474 kts 61°
2026-05-05 02:39 50.99510 47.90490 35004 ft 474 kts 61°
2026-05-05 02:39 51.02643 47.99690 35006 ft 474 kts 61°
2026-05-05 02:40 51.05772 48.08912 35002 ft 474 kts 61°
2026-05-05 02:40 51.08874 48.18088 35002 ft 474 kts 61°
2026-05-05 02:41 51.11991 48.27344 35004 ft 474 kts 61°
2026-05-05 02:41 51.15099 48.36605 35006 ft 474 kts 61°
2026-05-05 02:42 51.17699 48.44380 35004 ft 475 kts 61°
2026-05-05 02:42 51.20798 48.53679 35004 ft 475 kts 61°
2026-05-05 02:43 51.23879 48.62957 35005 ft 475 kts 61°
2026-05-05 02:43 51.26975 48.72316 35006 ft 476 kts 61°
2026-05-05 02:44 51.30046 48.81636 35010 ft 476 kts 61°
2026-05-05 02:44 51.33113 48.90978 35005 ft 476 kts 62°
2026-05-05 02:45 51.36694 49.01927 35007 ft 477 kts 62°
2026-05-05 02:45 51.39259 49.09802 35004 ft 477 kts 62°
2026-05-05 02:46 51.42320 49.19233 35006 ft 477 kts 62°
2026-05-05 02:46 51.45372 49.28672 35004 ft 478 kts 62°
2026-05-05 02:47 51.48420 49.38123 35004 ft 478 kts 62°
2026-05-05 02:47 51.51468 49.47609 35006 ft 478 kts 62°
2026-05-05 02:48 51.54511 49.57113 35005 ft 479 kts 62°
2026-05-05 02:48 51.57532 49.66665 35006 ft 479 kts 62°
2026-05-05 02:49 51.60552 49.76224 35005 ft 479 kts 62°
2026-05-05 02:49 51.63567 49.85803 35005 ft 480 kts 62°
2026-05-05 02:50 51.66574 49.95390 35002 ft 480 kts 62°
2026-05-05 02:50 51.69581 50.05016 35002 ft 481 kts 62°
2026-05-05 02:51 51.72563 50.14596 35004 ft 481 kts 62°
2026-05-05 02:51 51.75554 50.24246 35001 ft 482 kts 62°
2026-05-05 02:52 51.78547 50.33941 35002 ft 482 kts 62°
2026-05-05 02:52 51.81531 50.43643 35000 ft 482 kts 62°
2026-05-05 02:53 51.84510 50.53370 34998 ft 483 kts 62°
2026-05-05 02:53 51.87483 50.63114 34995 ft 483 kts 62°
2026-05-05 02:54 51.90449 50.72877 34998 ft 484 kts 62°
2026-05-05 02:54 51.93412 50.82663 35004 ft 484 kts 62°
2026-05-05 02:55 51.96453 50.92399 35005 ft 484 kts 61°
2026-05-05 02:55 51.99533 51.02116 35000 ft 484 kts 61°
2026-05-05 02:56 52.02615 51.11848 35000 ft 485 kts 61°
2026-05-05 02:56 52.05670 51.21535 34998 ft 485 kts 61°
2026-05-05 02:57 52.08757 51.31359 34997 ft 485 kts 61°
2026-05-05 02:57 52.11799 51.41060 34998 ft 484 kts 61°
2026-05-05 02:58 52.14851 51.50828 35001 ft 484 kts 61°
2026-05-05 02:58 52.17899 51.60618 34999 ft 484 kts 61°
2026-05-05 02:59 52.20938 51.70422 35001 ft 484 kts 61°
2026-05-05 02:59 52.23969 51.80236 35003 ft 484 kts 61°
2026-05-05 03:00 52.26990 51.90058 34997 ft 485 kts 61°
2026-05-05 03:00 52.30008 51.99914 35001 ft 485 kts 61°
2026-05-05 03:01 52.33020 52.09788 34998 ft 485 kts 62°
2026-05-05 03:01 52.36026 52.19683 34999 ft 486 kts 62°
2026-05-05 03:02 52.39024 52.29595 35006 ft 486 kts 62°
2026-05-05 03:02 52.42019 52.39529 35008 ft 487 kts 62°
2026-05-05 03:03 52.44999 52.49491 35005 ft 487 kts 62°
2026-05-05 03:03 52.47945 52.59428 35003 ft 487 kts 62°
2026-05-05 03:04 52.50899 52.69429 35004 ft 487 kts 62°
2026-05-05 03:04 52.53850 52.79459 35003 ft 488 kts 63°
2026-05-05 03:05 52.56792 52.89500 35005 ft 488 kts 63°
2026-05-05 03:05 52.59729 52.99570 35004 ft 488 kts 63°
2026-05-05 03:06 52.62660 53.09659 35006 ft 489 kts 63°
2026-05-05 03:06 52.66069 53.19245 35002 ft 482 kts 44°
2026-05-05 03:06 52.68582 53.22814 34995 ft 475 kts 29°
2026-05-05 03:07 52.71473 53.25403 35012 ft 473 kts 24°
2026-05-05 03:07 52.77373 53.30231 35000 ft 473 kts 22°
2026-05-05 03:08 52.83293 53.34952 34997 ft 472 kts 22°
2026-05-05 03:08 52.89163 53.39621 35000 ft 471 kts 22°
2026-05-05 03:09 52.95075 53.44336 34998 ft 471 kts 22°
2026-05-05 03:09 53.00988 53.49066 34999 ft 471 kts 22°
2026-05-05 03:10 53.06899 53.53809 34996 ft 471 kts 22°
2026-05-05 03:10 53.12803 53.58561 35000 ft 471 kts 22°
2026-05-05 03:11 53.18702 53.63324 34999 ft 471 kts 22°
2026-05-05 03:11 53.24598 53.68098 34994 ft 471 kts 22°
2026-05-05 03:12 53.30491 53.72884 34992 ft 470 kts 22°
2026-05-05 03:12 53.36385 53.77609 34987 ft 468 kts 18°
2026-05-05 03:13 53.42490 53.81363 34992 ft 467 kts 17°
2026-05-05 03:13 53.48565 53.85232 34997 ft 467 kts 18°
2026-05-05 03:14 53.54584 53.89112 34470 ft 464 kts 18°
2026-05-05 03:14 53.57660 53.91101 33391 ft 472 kts 18°
2026-05-05 03:14 53.60670 53.93049 32818 ft 467 kts 18°
2026-05-05 03:14 53.63689 53.95008 32008 ft 466 kts 18°
2026-05-05 03:15 53.66725 53.96979 31272 ft 465 kts 19°
2026-05-05 03:15 53.69737 53.98938 30468 ft 464 kts 19°
2026-05-05 03:15 53.72742 54.00896 29739 ft 461 kts 19°
2026-05-05 03:15 53.75746 54.02856 28471 ft 467 kts 19°
2026-05-05 03:16 53.78771 54.04832 27795 ft 462 kts 19°
2026-05-05 03:16 53.81746 54.06780 27234 ft 455 kts 19°
2026-05-05 03:16 53.84681 54.08703 26617 ft 450 kts 19°
2026-05-05 03:16 53.87586 54.10610 25992 ft 446 kts 19°
2026-05-05 03:17 53.90466 54.12503 25386 ft 443 kts 19°
2026-05-05 03:17 53.93327 54.14387 24777 ft 440 kts 19°
2026-05-05 03:17 53.96169 54.16261 24174 ft 437 kts 19°
2026-05-05 03:17 53.99001 54.18132 23577 ft 435 kts 19°
2026-05-05 03:18 54.01811 54.19989 22863 ft 432 kts 19°
2026-05-05 03:18 54.04603 54.21838 22250 ft 429 kts 20°
2026-05-05 03:18 54.07333 54.23649 21673 ft 424 kts 20°
2026-05-05 03:18 54.10070 54.25467 21094 ft 420 kts 20°
2026-05-05 03:19 54.15481 54.29065 19945 ft 414 kts 20°
2026-05-05 03:19 54.18164 54.30841 19283 ft 413 kts 20°
2026-05-05 03:19 54.20834 54.32610 18758 ft 410 kts 20°
2026-05-05 03:20 54.23482 54.34366 18209 ft 407 kts 20°
2026-05-05 03:20 54.26111 54.36113 17593 ft 404 kts 20°
2026-05-05 03:20 54.28711 54.37842 17030 ft 400 kts 20°
2026-05-05 03:20 54.31299 54.39566 16494 ft 396 kts 20°
2026-05-05 03:21 54.33857 54.41272 15963 ft 392 kts 20°
2026-05-05 03:21 54.36256 54.43478 15335 ft 394 kts 37°
2026-05-05 03:21 54.38129 54.46878 14853 ft 393 kts 54°
2026-05-05 03:21 54.39405 54.51023 14374 ft 391 kts 63°
2026-05-05 03:22 54.40539 54.55249 13865 ft 389 kts 64°
2026-05-05 03:22 54.41645 54.59474 13310 ft 387 kts 64°
2026-05-05 03:22 54.42714 54.63626 12792 ft 384 kts 64°
2026-05-05 03:22 54.43781 54.67813 12293 ft 381 kts 64°
2026-05-05 03:23 54.44830 54.71961 11819 ft 377 kts 65°
2026-05-05 03:23 54.45861 54.76046 11588 ft 367 kts 65°
2026-05-05 03:23 54.46858 54.80010 11409 ft 356 kts 65°
2026-05-05 03:23 54.47825 54.83862 11250 ft 346 kts 65°
2026-05-05 03:24 54.48765 54.87611 11056 ft 336 kts 65°
2026-05-05 03:24 54.49675 54.91250 10901 ft 327 kts 64°
2026-05-05 03:24 54.50563 54.94802 10744 ft 318 kts 64°
2026-05-05 03:24 54.51135 54.97097 10644 ft 312 kts 64°
2026-05-05 03:25 54.52255 55.01594 10455 ft 300 kts 64°
2026-05-05 03:25 54.53054 55.04808 10318 ft 291 kts 64°
2026-05-05 03:25 54.53588 55.06958 10228 ft 286 kts 64°
2026-05-05 03:25 54.54601 55.11042 10020 ft 276 kts 64°
2026-05-05 03:26 54.55351 55.14069 9753 ft 275 kts 64°
2026-05-05 03:26 54.55857 55.16115 9534 ft 274 kts 64°
2026-05-05 03:26 54.56844 55.20110 9163 ft 270 kts 64°
2026-05-05 03:26 54.57566 55.23035 9042 ft 261 kts 64°
2026-05-05 03:27 54.58111 55.24859 8883 ft 255 kts 51°
2026-05-05 03:27 54.59963 55.27174 8476 ft 246 kts 14°
2026-05-05 03:27 54.61630 55.27416 8228 ft 239 kts 353°
2026-05-05 03:27 54.63266 55.27007 7994 ft 235 kts 351°
2026-05-05 03:28 54.64878 55.26553 7742 ft 236 kts 350°
2026-05-05 03:28 54.66516 55.26056 7471 ft 242 kts 349°
2026-05-05 03:28 54.68180 55.25534 7208 ft 245 kts 349°
2026-05-05 03:28 54.69857 55.25007 7001 ft 244 kts 352°
2026-05-05 03:29 54.70974 55.25026 6957 ft 243 kts
2026-05-05 03:29 54.73186 55.25733 6945 ft 245 kts
2026-05-05 03:29 54.74861 55.26266 6935 ft 245 kts
2026-05-05 03:29 54.75994 55.26631 6943 ft 245 kts
2026-05-05 03:30 54.77675 55.27179 6939 ft 246 kts
2026-05-05 03:30 54.79331 55.27736 6939 ft 245 kts 12°
2026-05-05 03:30 54.80888 55.28947 6944 ft 247 kts 28°
2026-05-05 03:30 54.82382 55.30442 6949 ft 248 kts 28°
2026-05-05 03:31 54.83879 55.31942 6942 ft 249 kts 28°
2026-05-05 03:31 54.85375 55.33451 6942 ft 249 kts 28°
2026-05-05 03:31 54.87376 55.35480 6929 ft 249 kts 28°
2026-05-05 03:31 54.88299 55.36654 6924 ft 250 kts 43°
2026-05-05 03:32 54.89448 55.38954 6953 ft 253 kts 47°
2026-05-05 03:32 54.90588 55.41275 6950 ft 253 kts 47°
2026-05-05 03:32 54.91725 55.43608 6939 ft 253 kts 47°
2026-05-05 03:32 54.92859 55.45945 6932 ft 253 kts 47°
2026-05-05 03:33 54.93986 55.48296 6937 ft 253 kts 51°
2026-05-05 03:33 54.94766 55.51033 6952 ft 256 kts 68°
2026-05-05 03:33 54.95395 55.53939 6947 ft 256 kts 66°
2026-05-05 03:33 54.96025 55.56842 6946 ft 256 kts 67°
2026-05-05 03:34 54.96651 55.59749 6953 ft 256 kts 67°
2026-05-05 03:34 54.97274 55.62656 6942 ft 256 kts 67°
2026-05-05 03:34 54.97697 55.65669 6919 ft 258 kts 85°
2026-05-05 03:34 54.97721 55.68798 6953 ft 259 kts 86°
2026-05-05 03:35 54.97629 55.71894 6850 ft 256 kts 103°
2026-05-05 03:35 54.96790 55.74585 6687 ft 254 kts 134°
2026-05-05 03:35 54.95327 55.76196 6548 ft 251 kts 163°
2026-05-05 03:35 54.93608 55.76463 6407 ft 249 kts 191°
2026-05-05 03:36 54.92000 55.75453 6242 ft 247 kts 210°
2026-05-05 03:36 54.90472 55.74064 6064 ft 247 kts 210°
2026-05-05 03:36 54.88976 55.72678 5883 ft 247 kts 211°
2026-05-05 03:36 54.87466 55.71257 5697 ft 246 kts 211°
2026-05-05 03:37 54.85975 55.69842 5568 ft 241 kts 211°
2026-05-05 03:37 54.84527 55.68458 5407 ft 236 kts 211°
2026-05-05 03:37 54.83102 55.67091 5212 ft 232 kts 211°
2026-05-05 03:37 54.81709 55.65751 5047 ft 226 kts 211°
2026-05-05 03:38 54.80350 55.64442 4901 ft 220 kts 211°
2026-05-05 03:38 54.79058 55.63199 4804 ft 206 kts 211°
2026-05-05 03:38 54.77836 55.62023 4641 ft 196 kts 211°
2026-05-05 03:38 54.76670 55.60901 4486 ft 189 kts 212°
2026-05-05 03:39 54.75523 55.59799 4359 ft 188 kts 212°
2026-05-05 03:39 54.74359 55.58763 4235 ft 189 kts 200°
2026-05-05 03:39 54.73060 55.58721 4071 ft 191 kts 162°
2026-05-05 03:39 54.71973 55.59975 3893 ft 190 kts 127°
2026-05-05 03:40 54.71393 55.62002 3786 ft 189 kts 107°
2026-05-05 03:40 54.71007 55.64154 3743 ft 190 kts 105°
2026-05-05 03:40 54.70624 55.66378 3565 ft 191 kts 105°
2026-05-05 03:40 54.70253 55.68570 3387 ft 189 kts 105°
2026-05-05 03:41 54.69895 55.70719 3252 ft 187 kts 105°
2026-05-05 03:41 54.69344 55.72741 3086 ft 188 kts 127°
2026-05-05 03:41 54.68408 55.74296 2932 ft 187 kts 146°
2026-05-05 03:41 54.67279 55.75397 2680 ft 185 kts 154°
2026-05-05 03:42 54.66138 55.76402 2429 ft 181 kts 153°
2026-05-05 03:42 54.65090 55.77411 2238 ft 167 kts 152°
2026-05-05 03:42 54.64092 55.78395 1966 ft 162 kts 152°
2026-05-05 03:42 54.63116 55.79338 1761 ft 160 kts 153°
2026-05-05 03:43 54.62141 55.80276 1551 ft 160 kts 152°
2026-05-05 03:43 54.61178 55.81202 1293 ft 157 kts 153°
2026-05-05 03:43 54.60231 55.82112 1074 ft 154 kts 151°
2026-05-05 03:43 54.59315 55.83013 863 ft 149 kts 152°
2026-05-05 03:44 54.58412 55.83867 689 ft 147 kts 152°
2026-05-05 03:44 54.57528 55.84736 514 ft 146 kts 151°
2026-05-05 03:44 54.56682 55.85551 457 ft 120 kts 152°
2026-05-05 03:44 54.56152 55.86055 456 ft 55 kts 151°
2026-05-05 03:45 54.55926 55.86276 454 ft 19 kts 150°
2026-05-05 03:45 54.55850 55.86391 453 ft 12 kts 99°
2026-05-05 03:45 54.55884 55.86528 453 ft 14 kts 60°
2026-05-05 03:45 54.55935 55.86686 452 ft 16 kts 61°
2026-05-05 03:46 54.55992 55.86866 452 ft 18 kts 62°
2026-05-05 03:46 54.56057 55.87061 452 ft 20 kts 60°
2026-05-05 03:46 54.56128 55.87274 452 ft 21 kts 60°
2026-05-05 03:46 54.56201 55.87501 452 ft 23 kts 61°
2026-05-05 03:47 54.56262 55.87683 452 ft 11 kts 60°
2026-05-05 03:47 54.56278 55.87733 452 ft 3 kts 60°
2026-05-05 03:47 54.56290 55.87769 453 ft 5 kts 60°
2026-05-05 03:47 54.56324 55.87869 453 ft 15 kts 60°
2026-05-05 03:48 54.56378 55.88035 452 ft 11 kts 60°
2026-05-05 03:48 54.56417 55.88154 452 ft 12 kts 65°
2026-05-05 03:48 54.56438 55.88254 452 ft 9 kts 64°
2026-05-05 03:48 54.56458 55.88314 452 ft 2 kts 60°
2026-05-05 03:49 54.56463 55.88330 452 ft 0 kts 60°